Regional Weather Roundup
Issued by NWS

Home | Current Version | Previous Version | Graphics & Text | Print | Product List | Glossary On
Versions: 1 2 3 4 5 6 7 8 9 10 11 12 13 14 15 16 17 18 19 20 21 22 23 24 25 26 27 28 29 30 31 32 33 34 35 36 37 38 39 40 41 42 43 44 45 46 47 48 49 50
993
ASUS43 KMKX 210200
RWRWI

WISCONSIN REGIONAL WEATHER ROUNDUP
NATIONAL WEATHER SERVICE MILWAUKEE/SULLIVAN WI
800 PM CST MON FEB 20 2017

NOTE: "FAIR" INDICATES FEW OR NO CLOUDS BELOW 12,000 FEET WITH NO
SIGNIFICANT WEATHER AND/OR OBSTRUCTIONS TO VISIBILITY.

WIZ001-002-006>008-014>016-023>028-210300-
NORTHWEST WISCONSIN

CITY           SKY/WX    TMP DP  RH WIND       PRES   REMARKS
SUPERIOR ARPT  CLOUDY    37  37 100 CALM      29.64R FOG
ASHLAND        LGT RAIN  50  48  93 S10       29.65S
HAYWARD        LGT RAIN  50  48  93 S9        29.67S
SIREN          LGT RAIN  50  49  97 S8        29.67R
CUMBERLAND     LGT RAIN  46  45  93 S10       29.68F
RICE LAKE      RAIN      48  48  97 CALM      29.71F
CHETEK         RAIN      50  50 100 S7        29.71F
LADYSMITH      LGT RAIN  49  49  97 S9        29.75S
EAU CLAIRE     NOT AVBL
MENOMONIE      CLOUDY    51  51 100 SE10      29.69F
NEW RICHMOND   CLOUDY    50  50 100 S7        29.70R FOG
OSCEOLA        CLOUDY    50  50 100 S9        29.71S
$$

WIZ003>005-009-010-017-018-210300-
NORTH CENTRAL WISCONSIN

CITY           SKY/WX    TMP DP  RH WIND       PRES   REMARKS
MANITOWISH WTR RAIN      45  45 100 SW12G23   29.71S
ARBOR VITAE    LGT RAIN  47  46  95 S14       29.73F
WOODRUFF       LGT RAIN  47  46  95 S14       29.73F
RHINELANDER    LGT RAIN  47  47 100 S13G22    29.76S FOG
EAGLE RIVER    RAIN      44  44 100 S9G16     29.74F
LAND O LAKES   LGT RAIN  45  44  97 S12G17    29.75F
PHILLIPS       DRIZZLE   48  48 100 S12G17    29.73R
TOMAHAWK       RAIN      44  43  97 SE6       29.76S VSB 1
MEDFORD        RAIN      48  47  99 S18G26    29.77R VSB 1
MERRILL        NOT AVBL
$$

WIZ029-030-035-036-043>047-210300-
CENTRAL WISCONSIN

CITY           SKY/WX    TMP DP  RH WIND       PRES   REMARKS
WAUSAU         HVY RAIN  47  47 100 S8        29.78R FOG
MOSINEE        RAIN      46  46 100 S10       29.80R
MARSHFIELD     RAIN      52  51  97 S13       29.77S FOG
STEVENS POINT  LGT RAIN  47  47 100 S9        29.81S
WAUPACA        LGT RAIN  50  48  93 SE8       29.83F
WAUTOMA        LGT RAIN  51  49  92 SE7       29.82F FOG
WISC RAPIDS    RAIN      53  53 100 SW8       29.81R FOG
CAMP DOUGLAS   LGT RAIN  55  55 100 S9        29.81R
$$

WIZ011>013-019>022-031-037>040-048>050-210300-
NORTHEAST WISCONSIN

CITY           SKY/WX    TMP DP  RH WIND       PRES   REMARKS
ANTIGO         LGT RAIN  43  43 100 S24G35    29.80F
SHAWANO        DRIZZLE   50  46  87 S9G21     29.83F
OCONTO         CLOUDY    43  39  87 S14G22    29.86F
STURGEON BAY   LGT RAIN  47  40  76 SE21G28   29.88F
GREEN BAY      LGT RAIN  51  45  79 SE22G30   29.85F
MANITOWOC      NOT AVBL
APPLETON       DRIZZLE   50  43  76 SE16G24   29.83F
CLINTONVILLE   LGT RAIN  46  45  93 S12       29.83F
OSHKOSH        CLOUDY    52  45  77 S15       29.84F
$$

WIZ032>034-041-042-053>061-210300-
SOUTHWEST WISCONSIN

CITY           SKY/WX    TMP DP  RH WIND       PRES   REMARKS
LA CROSSE      LGT RAIN  55  54  96 S13       29.78F
SPARTA         RAIN      55  55  98 S3        29.80F
VIROQUA        CLOUDY    55  55 100 SW10      29.83S
BOSCOBEL       LGT RAIN  58  56  93 SW6       29.85R
PRAIRIE DU CHI DRIZZLE   55  54  97 CALM      29.84R
PLATTEVILLE    CLOUDY    55  55 100 S9        29.86F
$$

WIZ056-057-062-063-064-067-068-210300-
SOUTH CENTRAL WISCONSIN

CITY           SKY/WX    TMP DP  RH WIND       PRES   REMARKS
REEDSBURG      RAIN      55  55 100 S10       29.83S
BARABOO/DELLS  RAIN      55  52  91 S13       29.82S
LONE ROCK      LGT RAIN  58  55  90 S14       29.85R FOG
MINERAL POINT  LGT RAIN  55  55 100 S9        29.85F
MADISON        LGT RAIN  57  52  83 S9        29.85S
MIDDLETON      CLOUDY    59  54  83 S13       29.86R
WATERTOWN      CLOUDY    55  49  81 SE8       29.86F
MONROE         CLOUDY    59  52  77 S10G17    29.87R
JANESVILLE     MOCLDY    63  52  67 S13G20    29.87S
$$

WIZ051-052-058>065-066-070>072-210300-
SOUTHEAST WISCONSIN

CITY           SKY/WX    TMP DP  RH WIND       PRES   REMARKS
MILWAUKEE      CLOUDY    59  41  51 S22G28    29.93S
WAUKESHA       CLOUDY    55  43  62 SE17      29.91F
MILWAUKEE/TIMM CLOUDY    57  39  51 S16G24    29.91F
RACINE         CLOUDY    52  39  61 S15G24    29.95S
KENOSHA        CLOUDY    58  43  57 S21       29.93S
FOND DU LAC    CLOUDY    54  44  69 SE20      29.84F
SHEBOYGAN      LGT RAIN  50  41  71 S17G25    29.91F
WEST BEND      CLOUDY    52  45  76 SE8       29.89F
JUNEAU         CLOUDY    53  46  78 SE13      29.87F
$$

LSZ147-162-210300-
LAKE SUPERIOR

STATION/POSITION TIME  TEMP    WIND        PRES    WAVE
                       AIR SEA DIR/SP/G            HT/PER
                 (UTC) (F)     (DEG/KT/KT) (MB)    (FT/S)
DEVILS ISLAND    0100   45     210/  8/ 12 1003.9F
PORT WING        0140   37      CALM  /  2 1003.7F
SAXON HARBOR     0140   51     190/ 10/ 17 1004.1S
$$

LMZ867-665-643>646-210300-
LAKE MICHIGAN

STATION/POSITION TIME  TEMP    WIND        PRES    WAVE
                       AIR SEA DIR/SP/G            HT/PER
                 (UTC) (F)     (DEG/KT/KT) (MB)    (FT/S)
CHAMBERS ISLAND  0140   47     130/ 13/ 20 1011.2F
NORTHPORT PIER   0130   42     150/ 14/ 20 1012.9F
SISTER BAY       0020   45     160/ 18/ 23   N/A
KEWAUNEE LAKESHO 0130   40     180/ 11/ 13 1013.3F
SHEBOYGAN LAKESH 0100   44     150/ 20/ 21 1013.5F
PORT WASHINGTON  0140   43     210/  5/  9 1014.9R
MILWAUKEE LAKESH 0130   44     150/ 17/ 18   N/A
KENOSHA   LAKESH 0100   41     180/ 13/ 18 1013.9
$$

TC  - TEMPERATURE IN CELSIUS
VSB - VISIBILITY IN STATUTE MILES
WCI - WIND CHILL INDEX
HX  - HEAT INDEX





USA.gov is the U.S. government's official web portal to all federal, state and local government web resources and services.